WS Maaseik 1 Meer informatie WS Maaseik 1


WS Maaseik 2 Meer informatie WS Maaseik 2


Regen radar Meer informatie rain snow radar


Bezoek onze andere website:

Vorige versie
weerstation Maaseik


Bezoek ook eens deze sites:

Weerstation Geleen



Het weer levert geen direct gevaar op.    Er zijn geen waarschuwingen afgegeven.

15 daagse weersverwachting Braunau am Inn (AT)

  • Overzicht
  • Per uur
  • 15 dagen
  • Extra
  • Vergelijk
  • Kaarten
  • Dagkaart
  • Meer »
  • Info
  • Statistieken
  • Directe link
    Temp 6h Neerslag Wind  
 05:51     20:38    Daglengte: 14:47 Vandaag
14:00
16°
5.0 mm
4
20:00
17°
12.7 mm
2
 05:52     20:36    Daglengte: 14:44 Morgen
02:00
15°
3.1 mm
3
08:00
15°
 
3
14:00
20°
3.8 mm
5
20:00
18°
11.2 mm
1
 05:53     20:34    Daglengte: 14:41 Zaterdag 07 Aug
02:00
14°
 
1
08:00
15°
 
1
14:00
24°
 
4
20:00
21°
12.2 mm
4
 05:55     20:33    Daglengte: 14:38 Zondag 08 Aug
02:00
15°
11.9 mm
5
08:00
15°
45.3 mm
3
Locatie info
Region: Upper Austria
Latitude: 48.2563°N
Longitude: 13.0434°E
350 masl
Temp/Neerslag /Baro Onweer/Dauwpunt
    Temp Baro 1h Neerslag Dauwpunt Wind UV Bewolking  
 05:51     20:38    Daglengte: 14:47 Vandaag
13:00
16°
1010.5 hPa 5.0 mm
48%
14.4°
4
Windvlaag: 0.6 m/s
86%
14:00
16°
1010.2 hPa
82%
14.5°
4
Windvlaag: 0.6 m/s
62%
15:00
18°
1009.8 hPa
82%
14.1°
4
Windvlaag: 0.8 m/s
42%
16:00
19°
1009.1 hPa
82%
13.1°
3
Windvlaag: 1 m/s
24%
17:00
19°
1008.8 hPa 3.2 mm
82%
12.5°
4
Windvlaag: 0.8 m/s
43%
18:00
19°
1008.7 hPa 3.0 mm
81%
12.3°
3
Windvlaag: 0.7 m/s
10%
19:00
18°
1008.6 hPa 3.4 mm
77%
11.6°
3
Windvlaag: 1 m/s
13% warningclass
20:00
17°
1008.9 hPa 3.1 mm
68%
13.3°
2
Windvlaag: 0.6 m/s
10%
21:00
16°
1009.2 hPa
22%
14.0°
1
Windvlaag: 1 m/s
53%
22:00
15°
1009.4 hPa
31%
13.9°
1
Windvlaag: 0.4 m/s
59%
23:00
15°
1009.5 hPa 3.1 mm
80%
13.8°
2
Windvlaag: 0.1 m/s
68%
 05:52     20:36    Daglengte: 14:44 Morgen
00:00
14°
1009.4 hPa
69%
13.7°
2
Windvlaag: 2.1 m/s
54%
01:00
15°
1009.3 hPa
31%
13.9°
3
Windvlaag: 2.9 m/s
53%
02:00
15°
1009.2 hPa
26%
13.6°
3
Windvlaag: 2.9 m/s
47%
03:00
15°
1009.1 hPa
26%
13.0°
3
Windvlaag: 2.4 m/s
50%
04:00
14°
1008.9 hPa
34%
12.8°
3
Windvlaag: 2.1 m/s
20%
05:00
14°
1008.6 hPa
34%
12.8°
2
Windvlaag: 2.8 m/s
16%
06:00
14°
1008.7 hPa
23%
12.5°
2
Windvlaag: 2.9 m/s
21%
07:00
14°
1008.9 hPa
16%
12.7°
2
Windvlaag: 2.8 m/s
20%
08:00
15°
1009.1 hPa
14%
13.3°
3
Windvlaag: 3.1 m/s
23%
09:00
16°
1009.2 hPa
14%
14.1°
3
Windvlaag: 3.3 m/s
54%
10:00
18°
1009.4 hPa
15%
14.4°
3
Windvlaag: 3.2 m/s
58%
11:00
18°
1009.6 hPa
78%
11.9°
4
Windvlaag: 1.6 m/s
76%
12:00
17°
1009.7 hPa 3.8 mm
82%
10.0°
4
Windvlaag: 1.2 m/s
82%
13:00
18°
1009.6 hPa
76%
13.4°
4
Windvlaag: 1.5 m/s
46%
14:00
20°
1009.2 hPa
65%
13.7°
5
Windvlaag: 3.6 m/s
21%
15:00
19°
1008.9 hPa
70%
15.8°
5
Windvlaag: 3.9 m/s
34%
16:00
20°
1008.9 hPa 3.8 mm
82%
17.2°
4
Windvlaag: 1.6 m/s
12%
17:00
19°
1009.1 hPa
82%
16.2°
4
Windvlaag: -0.9 m/s
18%
18:00
19°
1009.0 hPa 3.7 mm
82%
15.7°
3
Windvlaag: -1.6 m/s
23%
19:00
19°
1009.3 hPa 3.7 mm
81%
15.5°
2
Windvlaag: -0 m/s
7%
20:00
18°
1009.5 hPa
14%
15.5°
1
Windvlaag: 1.1 m/s
7%
21:00
17°
1010.3 hPa
18%
14.8°
1
Windvlaag: 1.9 m/s
6%
22:00
16°
1010.6 hPa
14%
14.5°
1
Windvlaag: 0.7 m/s
38%
23:00
16°
1010.9 hPa
14%
14.6°
1
Windvlaag: 1.1 m/s
48%
 05:53     20:34    Daglengte: 14:41 Zaterdag 07 Aug
00:00
15°
1011.0 hPa
14%
14.3°
1
Windvlaag: 0.6 m/s
46%
01:00
14°
1010.9 hPa
14%
13.5°
1
Windvlaag: 1.2 m/s
49%
02:00
14°
1010.8 hPa
14%
13.0°
1
Windvlaag: 0.6 m/s
27%
03:00
14°
1010.6 hPa
14%
12.8°
1
Windvlaag: 0.6 m/s
26%
04:00
13°
1010.6 hPa
14%
12.5°
1
Windvlaag: 0.6 m/s
12%
05:00
13°
1010.5 hPa
14%
12.2°
1
Windvlaag: 0.6 m/s
41%
06:00
13°
1010.6 hPa
14%
12.0°
1
Windvlaag: 0.4 m/s
34%
07:00
13°
1010.7 hPa
14%
12.3°
1
Windvlaag: -0.1 m/s
43%
08:00
15°
1010.5 hPa
14%
13.1°
1
Windvlaag: 0 m/s
15%
09:00
17°
1010.2 hPa
14%
13.8°
2
Windvlaag: -0.1 m/s
50%
10:00
19°
1009.9 hPa
14%
12.7°
2
Windvlaag: 0.2 m/s
33%
11:00
20°
1008.8 hPa
21%
13.6°
3
Windvlaag: 0.5 m/s
31%
12:00
22°
1008.0 hPa
21%
13.8°
4
Windvlaag: 0.5 m/s
42%
13:00
23°
1007.2 hPa
21%
14.0°
4
Windvlaag: 0.5 m/s
14%
14:00
24°
1006.3 hPa
21%
14.0°
4
Windvlaag: 0.6 m/s
21%
15:00
24°
1005.4 hPa
21%
13.9°
5
Windvlaag: 0.4 m/s
39%
16:00
25°
1004.3 hPa
21%
14.3°
5
Windvlaag: 0.3 m/s
41%
17:00
25°
1003.3 hPa
21%
14.7°
5
Windvlaag: 0.2 m/s
60%
18:00
24°
1002.4 hPa
21%
14.9°
4
Windvlaag: -0 m/s
42%
19:00
24°
1001.7 hPa 6.1 mm
21%
15.3°
4
Windvlaag: -0.2 m/s
63% warningclass
20:00
21°
1001.6 hPa 6.1 mm
21%
18.8°
4
Windvlaag: 0.4 m/s
68%
21:00
20°
1003.4 hPa
21%
18.1°
4
Windvlaag: -3.5 m/s
68%
22:00
19°
1003.8 hPa
21%
16.7°
4
Windvlaag: -3.9 m/s
76%
23:00
18°
1005.3 hPa
21%
16.2°
6
Windvlaag: -5.6 m/s
78%
 05:55     20:33    Daglengte: 14:38 Zondag 08 Aug
00:00
17°
1007.4 hPa
28%
15.4°
7
Windvlaag: -6.4 m/s
90%
01:00
16°
1009.5 hPa 4.5 mm
100%
15.1°
7
Windvlaag: -4.1 m/s
99%
02:00
15°
1010.4 hPa 7.4 mm
55%
14.5°
5
Windvlaag: -0.9 m/s
98%
03:00
15°
1011.0 hPa 7.4 mm
100%
14.6°
4
Windvlaag: 9.5 m/s
87%
04:00
15°
1011.5 hPa 7.4 mm
100%
14.0°
4
Windvlaag: 10.3 m/s
100%
05:00
15°
1011.8 hPa 7.7 mm
100%
13.8°
3
Windvlaag: 7.4 m/s
91%
06:00
14°
1012.5 hPa 7.6 mm
100%
13.5°
3
Windvlaag: 6 m/s
100%
07:00
15°
1013.2 hPa 7.7 mm
100%
12.8°
3
Windvlaag: 8.1 m/s
98%
08:00
15°
1013.6 hPa 7.6 mm
100%
11.3°
3
Windvlaag: 8.4 m/s
96%
09:00
15°
1014.9 hPa 0.2 mm
100%
-36.3°
2
Windvlaag: 0 m/s
66%
Temp/Neerslag /Baro Onweer/Dauwpunt
    Temp Baro Neerslag Dauwpunt Wind Bewolking  
 05:51     20:38    Daglengte: 14:47 Vandaag
14:00
16°
1010.2 hPa 5.0 mm 14.5°
4
62%
17:00
19°
1008.8 hPa 3.2 mm 12.5°
4
43%
20:00
17°
1008.9 hPa 9.5 mm 13.3°
2
10%
23:00
15°
1009.5 hPa 3.1 mm 13.8°
2
68%
 05:52     20:36    Daglengte: 14:44 Morgen
02:00
15°
1009.2 hPa   13.6°
3
47%
05:00
14°
1008.6 hPa   12.8°
2
16%
08:00
15°
1009.1 hPa   13.3°
3
23%
11:00
18°
1009.6 hPa   11.9°
4
76%
14:00
20°
1009.2 hPa 3.8 mm 13.7°
5
21%
17:00
19°
1009.1 hPa 3.8 mm 16.2°
4
18% warningclass
20:00
18°
1009.5 hPa 7.3 mm 15.5°
1
7%
23:00
16°
1010.9 hPa   14.6°
1
48%
 05:53     20:34    Daglengte: 14:41 Zaterdag 07 Aug
02:00
14°
1010.8 hPa   13.0°
1
27%
05:00
13°
1010.5 hPa   12.2°
1
41%
08:00
15°
1010.5 hPa   13.1°
1
15%
11:00
20°
1008.8 hPa   13.6°
3
31%
14:00
24°
1006.3 hPa   14.0°
4
21%
17:00
25°
1003.3 hPa   14.7°
5
60%
20:00
21°
1001.6 hPa 12.2 mm 18.8°
4
68%
23:00
18°
1005.3 hPa   16.2°
6
78%
 05:55     20:33    Daglengte: 14:38 Zondag 08 Aug
02:00
15°
1010.4 hPa 11.9 mm 14.5°
5
98%
05:00
15°
1011.8 hPa 22.4 mm 13.8°
3
91%
08:00
15°
1013.6 hPa 22.9 mm 11.3°
3
96%
11:00
18°
1014.9 hPa 5.9 mm 16.7°
3
0%
14:00
20°
1014.8 hPa   18.3°
3
0%
17:00
15°
1017.0 hPa 28.8 mm 13.8°
3
1%
20:00
12°
1021.2 hPa 32.6 mm 11.2°
3
1%
23:00
12°
1022.4 hPa 34.6 mm 11.1°
2
1%
 05:56     20:31    Daglengte: 14:35 Maandag 09 Aug
02:00
10°
Voelt als: 9.1°
1022.2 hPa 34.6 mm 8.7°
2
1%
05:00
1022.3 hPa 34.6 mm 7.5°
1
0%
08:00
12°
1022.6 hPa 34.6 mm 9.7°
0
1%
11:00
17°
1022.6 hPa 34.6 mm 11.4°
0
1%
14:00
20°
1021.9 hPa 34.6 mm 11.0°
1
1%
17:00
20°
1022.0 hPa 34.6 mm 12.5°
2
1%
20:00
16°
1023.1 hPa 34.7 mm 12.9°
1
1%
23:00
12°
1024.6 hPa 34.8 mm 11.3°
2
0%
 05:57     20:30    Daglengte: 14:33 Dinsdag 10 Aug
02:00
11°
1025.3 hPa 34.8 mm 10.4°
2
0%
05:00
11°
1025.0 hPa 34.8 mm 10.3°
1
1%
08:00
14°
1025.4 hPa 34.8 mm 11.3°
1
1%
11:00
20°
1024.5 hPa 34.8 mm 12.4°
2
0%
14:00
22°
1022.9 hPa 34.8 mm 11.9°
2
0%
17:00
23°
1021.9 hPa 34.8 mm 13.1°
2
1%
20:00
17°
1022.2 hPa 34.8 mm 14.4°
1
1%
23:00
14°
1023.5 hPa 34.8 mm 12.5°
1
1%
 05:59     20:28    Daglengte: 14:29 Woensdag 11 Aug
02:00
13°
1023.6 hPa 34.8 mm 11.9°
1
1%
05:00
12°
1022.9 hPa 34.8 mm 11.3°
1
0%
08:00
15°
1023.1 hPa 34.8 mm 12.9°
1
0%
11:00
21°
1022.5 hPa 34.8 mm 13.9°
2
0%
14:00
24°
1021.4 hPa 34.8 mm 14.2°
2
0%
17:00
25°
1021.1 hPa 34.8 mm 14.1°
1
0%
20:00
19°
1021.7 hPa 34.8 mm 15.3°
1
0%
23:00
16°
1023.3 hPa 34.8 mm 13.8°
1
0%
 06:00     20:26    Daglengte: 14:26 Donderdag 12 Aug
02:00
15°
1024.0 hPa 34.8 mm 13.8°
1
0%
05:00
14°
1023.9 hPa 34.8 mm 13.2°
1
0%
08:00
17°
1024.3 hPa 34.8 mm 14.8°
0
1%
11:00
23°
1023.9 hPa   16.2°
1
1%
14:00
25°
1022.8 hPa 69.6 mm 15.8°
2
1%
20:00
21°
1022.6 hPa 69.6 mm 16.9°
1
0%
 06:01     20:24    Daglengte: 14:23 Vrijdag 13 Aug
02:00
16°
1023.8 hPa 69.7 mm 14.2°
1
0%
08:00
18°
1023.6 hPa 69.7 mm 15.2°
1
0%
14:00
26°
1021.0 hPa 69.7 mm 15.2°
2
0%
20:00
21°
1018.8 hPa 69.7 mm 15.7°
1
1%
 06:03     20:23    Daglengte: 14:20 Zaterdag 14 Aug
02:00
16°
1018.3 hPa 69.7 mm 14.0°
1
0%
08:00
18°
1017.0 hPa 69.7 mm 15.3°
1
0%
14:00
27°
1013.3 hPa 69.7 mm 17.4°
1
0%
20:00
21°
1011.5 hPa 71.6 mm 18.9°
1
0%
 06:04     20:21    Daglengte: 14:17 Zondag 15 Aug
02:00
18°
1012.3 hPa 81.5 mm 18.1°
3
1%
08:00
16°
1016.7 hPa 0.9 mm 15.0°
1
61%
14:00
22°
1015.0 hPa 1.5 mm 16.0°
2
60%
20:00
18°
1015.3 hPa 1.1 mm 15.8°
1
57%
 06:05     20:19    Daglengte: 14:14 Maandag 16 Aug
02:00
15°
1016.5 hPa 1.1 mm 13.6°
1
55%
08:00
16°
1016.4 hPa 0.5 mm 14.0°
1
55%
14:00
22°
1015.8 hPa 0.6 mm 15.8°
2
59%
20:00
18°
1016.8 hPa 0.8 mm 15.4°
1
52%
 06:07     20:17    Daglengte: 14:10 Dinsdag 17 Aug
02:00
15°
1018.5 hPa 1.1 mm 13.5°
1
58%
08:00
15°
1018.8 hPa 0.5 mm 14.0°
1
64%
14:00
22°
1017.9 hPa 0.7 mm 15.8°
1
57%
20:00
18°
1018.2 hPa 0.9 mm 15.4°
1
44%
 06:08     20:15    Daglengte: 14:07 Woensdag 18 Aug
02:00
15°
1019.3 hPa 1.3 mm 13.6°
1
50%
08:00
16°
1018.9 hPa 0.7 mm 13.9°
1
50%
14:00
22°
1017.2 hPa 1.1 mm 16.1°
1
47%
20:00
18°
1017.0 hPa 1.2 mm 15.7°
1
43%
 06:10     20:14    Daglengte: 14:04 Donderdag 19 Aug
02:00
15°
1018.1 hPa 1.4 mm 14.0°
1
59%
08:00
16°
1017.7 hPa 1.2 mm 14.0°
1
61%
14:00
22°
1016.1 hPa   16.3°
1
57%
20:00
18°
1016.4 hPa 1.6 mm 15.6°
1
55%
 06:11     20:12    Daglengte: 14:01 Vrijdag 20 Aug
02:00
15°
1017.4 hPa 1.9 mm 13.8°
1
53%
08:00
16°
1017.0 hPa 0.9 mm 14.2°
1
60%
  CAPE Lifted Index Hail Supercell Tornado SRH 3km CL BTM PRES CL TOP PRES Swiss DWD icon SMHI TS
 05:51     20:38    Daglengte: 14:47 Vandaag
13:00 225 J/kg 0.2 K 0 % 0 % 0 % 0 m²/s² 0 0 0.59 61
14:00 267 J/kg -0.3 K 0 % 0 % 0 % 0 m²/s² 0 0 0.12 3
15:00 259 J/kg -0.3 K 0 % 0 % 0 % 0 m²/s² 0 0 0.39 3
16:00 251 J/kg -0.6 K 0 % 0 % 0 % 0 m²/s² 0 0 0.42 3
17:00 354 J/kg -1.6 K 0 % 0 % 0 % 0 m²/s² 0 0 -0.19 80
18:00 397 J/kg -2.0 K 0 % 0 % 0 % 0 m²/s² 0 0 -0.53 2
19:00 446 J/kg -2.3 K 0 % 0 % 0 % 0 m²/s² 0 0 -0.77 95
20:00 366 J/kg -2.0 K 0 % 0 % 0 % 0 m²/s² 0 0 0.01 80
21:00 270 J/kg -1.8 K 0 % 0 % 0 % 0 m²/s² 0 0 0.39 3
22:00 277 J/kg -1.6 K 0 % 0 % 0 % 0 m²/s² 0 0 0.65 3
23:00 252 J/kg -1.4 K 0 % 0 % 0 % 0 m²/s² 0 0 0.79 3
 05:52     20:36    Daglengte: 14:44 Morgen
00:00 111 J/kg -1.1 K 0 % 0 % 0 % 0 m²/s² 0 0 1.6 3
01:00 150 J/kg -1.2 K 0 % 0 % 0 % 0 m²/s² 0 0 1.05 3
02:00 0 J/kg -0.8 K 0 % 0 % 0 % 0 m²/s² 0 0 1.33 3
03:00 0 J/kg -1.0 K 0 % 0 % 0 % 0 m²/s² 0 0 1.31 3
04:00 0 J/kg -1.2 K 0 % 0 % 0 % 0 m²/s² 0 0 1.14 2
05:00 0 J/kg -1.1 K 0 % 0 % 0 % 0 m²/s² 0 0 0.52 1
06:00 29 J/kg -0.9 K 0 % 0 % 0 % 0 m²/s² 0 0 -0.39 2
07:00 51 J/kg -0.4 K 0 % 0 % 0 % 0 m²/s² 0 0 0.38 2
08:00 118 J/kg -0.6 K 0 % 0 % 0 % 0 m²/s² 0 0 0.33 1
09:00 404 J/kg -1.3 K 0 % 0 % 0 % 0 m²/s² 0 0 -0.16 3
10:00 727 J/kg -2.2 K 0 % 0 % 0 % 0 m²/s² 0 0 -0.97 3
11:00 825 J/kg -2.7 K 0 % 0 % 0 % 0 m²/s² 0 0 -1.56 3
12:00 803 J/kg -2.9 K 0 % 0 % 0 % 0 m²/s² 0 0 -1.25 61
13:00 701 J/kg -2.8 K 0 % 0 % 0 % 0 m²/s² 0 0 -2.05 3
14:00 564 J/kg -2.3 K 0 % 0 % 0 % 0 m²/s² 0 0 -1.37 2
15:00 251 J/kg -0.9 K 0 % 0 % 0 % 0 m²/s² 0 0 -0.69 3
16:00 642 J/kg -2.9 K 0 % 0 % 0 % 0 m²/s² 0 0 -1.55 80
17:00 645 J/kg -2.6 K 0 % 0 % 0 % 0 m²/s² 0 0 -2.21 2
18:00 502 J/kg -2.1 K 0 % 0 % 0 % 0 m²/s² 0 0 1.32 2
19:00 455 J/kg -1.8 K 0 % 0 % 0 % 0 m²/s² 0 0 2.52 2
20:00 318 J/kg -0.8 K 0 % 0 % 0 % 0 m²/s² 0 0 3.52 2
21:00 137 J/kg 0.1 K 0 % 0 % 0 % 0 m²/s² 0 0 5.14 2
22:00 43 J/kg 1.3 K 0 % 0 % 0 % 0 m²/s² 0 0 6.46 3
23:00 2 J/kg 1.8 K 0 % 0 % 0 % 0 m²/s² 0 0 7.11 3
 05:53     20:34    Daglengte: 14:41 Zaterdag 07 Aug
00:00 0 J/kg 2.2 K 0 % 0 % 0 % 0 m²/s² 0 0 7.39 3
01:00 0 J/kg 2.7 K 0 % 0 % 0 % 0 m²/s² 0 0 7.89 3
02:00 0 J/kg 2.2 K 0 % 0 % 0 % 0 m²/s² 0 0 7 3
03:00 0 J/kg 2.8 K 0 % 0 % 0 % 0 m²/s² 0 0 7.03 3
04:00 0 J/kg 3.1 K 0 % 0 % 0 % 0 m²/s² 0 0 6.01 2
05:00 0 J/kg 3.4 K 0 % 0 % 0 % 0 m²/s² 0 0 5.86 2
06:00 0 J/kg 3.7 K 0 % 0 % 0 % 0 m²/s² 0 0 5.8 45
07:00 0 J/kg 4.1 K 0 % 0 % 0 % 0 m²/s² 0 0 5.81 45
08:00 0 J/kg 4.3 K 0 % 0 % 0 % 0 m²/s² 0 0 6.16 2
09:00 0 J/kg 3.7 K 0 % 0 % 0 % 0 m²/s² 0 0 5.95 3
10:00 0 J/kg 2.7 K 0 % 0 % 0 % 0 m²/s² 0 0 5.16 3
11:00 0 J/kg 1.7 K 0 % 0 % 0 % 0 m²/s² 0 0 4.04 3
12:00 0 J/kg 0.9 K 0 % 0 % 0 % 0 m²/s² 0 0 3.15 3
13:00 27 J/kg -0.1 K 0 % 0 % 0 % 0 m²/s² 0 0 2.45 1
14:00 130 J/kg -1.2 K 0 % 0 % 0 % 0 m²/s² 0 0 1.23 2
15:00 316 J/kg -2.0 K 0 % 0 % 0 % 0 m²/s² 0 0 0.13 1
16:00 550 J/kg -2.7 K 0 % 0 % 0 % 0 m²/s² 0 0 -0.96 1
17:00 799 J/kg -3.1 K 0 % 0 % 0 % 0 m²/s² 0 0 -1.66 3
18:00 1441 J/kg -4.3 K 0 % 0 % 0 % 0 m²/s² 0 0 -3.28 3
19:00 1141 J/kg -3.9 K 0 % 0 % 0 % 0 m²/s² 0 0 -3.45 3
20:00 92 J/kg -1.7 K 0 % 0 % 0 % 0 m²/s² 0 0 -0.83 3
21:00 9 J/kg 0.3 K 0 % 0 % 0 % 0 m²/s² 0 0 0.51 3
22:00 3 J/kg 1.7 K 0 % 0 % 0 % 0 m²/s² 0 0 2 3
23:00 1 J/kg 3.0 K 0 % 0 % 0 % 0 m²/s² 0 0 3.36 2
 05:55     20:33    Daglengte: 14:38 Zondag 08 Aug
00:00 3 J/kg 3.3 K 0 % 0 % 0 % 0 m²/s² 0 0 3.3 3
01:00 1 J/kg 4.0 K 0 % 0 % 0 % 0 m²/s² 0 0 4 3
02:00 0 J/kg 4.7 K 0 % 0 % 0 % 0 m²/s² 0 0 4.7 3
03:00 0 J/kg 5.2 K 0 % 0 % 0 % 0 m²/s² 0 0 5.2 61
04:00 0 J/kg 4.6 K 0 % 0 % 0 % 0 m²/s² 0 0 4.6 61
05:00 0 J/kg 3.5 K 0 % 0 % 0 % 0 m²/s² 0 0 3.5 61
06:00 0 J/kg 3.2 K 0 % 0 % 0 % 0 m²/s² 0 0 3.23 61
07:00 7 J/kg 2.9 K 0 % 0 % 0 % 0 m²/s² 0 0 2.93 61
08:00 4 J/kg 2.9 K 0 % 0 % 0 % 0 m²/s² 0 0 2.93 61
09:00 0 J/kg 0.0 K 0 % 0 % 0 % 0 m²/s² 0 0 13.83 61
Temp Baro Wind Neerslag
  EWN Forecast EWN WRFDA DWD ICON FMI HIRLAM MET Norway GFS
 05:51     20:38    Daglengte: 14:47 Vandaag
14:00 16.5° 1010.2 hPa 4.1 m/s 5.0 mm 18.2° 1008.2 hPa 4.5 m/s 27.5 mm 16.3° 1010.4 hPa 3.4 m/s 0.5 mm 16.4° 1010.1 hPa 4.1 m/s 0.0 mm 17.9° 1010.2 hPa 3.8 m/s
17:00 18.9° 1008.8 hPa 3.7 m/s 3.2 mm 20.2° 1006.8 hPa 4.0 m/s 41.7 mm 18.5° 1009.0 hPa 3.7 m/s 0.5 mm 19.8° 1008.3 hPa 3.8 m/s 0.0 mm 20.5° 1008.8 hPa 3.0 m/s
20:00 17.2° 1008.9 hPa 1.7 m/s 9.5 mm 17.0° 1006.6 hPa 1.9 m/s 42.1 mm 17.1° 1009.3 hPa 2.5 m/s 2.1 mm 18.3° 1008.2 hPa 1.6 m/s 0.0 mm 16.3° 1008.9 hPa 2.1 m/s
23:00 14.6° 1009.5 hPa 1.6 m/s 3.1 mm 13.8° 1007.0 hPa 2.8 m/s 42.8 mm 15.6° 1010.4 hPa 2.5 m/s 0.1 mm 14.4° 1009.1 hPa 1.5 m/s 0.0 mm 14.5° 1009.8 hPa 2.1 m/s
 05:52     20:36    Daglengte: 14:44 Morgen
02:00 15.0° 1009.2 hPa 3.4 m/s 0.0 mm 14.1° 1006.6 hPa 3.7 m/s 42.8 mm 15.0° 1009.6 hPa 2.6 m/s 0.0 mm 15.4° 1008.5 hPa 4.2 m/s 0.0 mm 14.0° 1010.1 hPa 4.1 m/s
05:00 13.9° 1008.6 hPa 2.3 m/s 0.0 mm 12.4° 1006.0 hPa 2.8 m/s 42.9 mm 14.0° 1009.3 hPa 2.2 m/s 0.0 mm 14.1° 1008.3 hPa 2.7 m/s 0.0 mm 12.1° 1010.4 hPa 2.2 m/s
08:00 14.8° 1009.1 hPa 2.6 m/s 0.0 mm 16.0° 1006.8 hPa 3.8 m/s 44.2 mm 15.1° 1010.0 hPa 2.3 m/s 0.0 mm 14.6° 1008.1 hPa 3.3 m/s 0.0 mm 14.1° 1010.6 hPa 2.0 m/s
11:00 17.7° 1009.6 hPa 4.0 m/s 0.0 mm 19.4° 1006.9 hPa 2.5 m/s 45.5 mm 17.3° 1010.2 hPa 4.1 m/s 0.0 mm 20.0° 1007.9 hPa 4.2 m/s 0.0 mm 16.8° 1011.3 hPa 3.0 m/s
14:00 19.7° 1009.2 hPa 4.8 m/s 3.8 mm 21.4° 1006.2 hPa 3.7 m/s 49.4 mm 19.4° 1009.9 hPa 5.1 m/s 0.7 mm 21.1° 1007.7 hPa 5.3 m/s 0.0 mm 21.5° 1009.7 hPa 3.4 m/s
17:00 19.2° 1009.1 hPa 4.2 m/s 3.8 mm 20.1° 1007.1 hPa 4.6 m/s 52.4 mm 20.4° 1009.4 hPa 4.1 m/s 0.8 mm 18.1° 1008.9 hPa 4.1 m/s 0.0 mm 21.4° 1009.8 hPa 4.6 m/s
20:00 17.8° 1009.5 hPa 1.3 m/s 7.3 mm 18.7° 1006.4 hPa 2.4 m/s 53.2 mm 19.2° 1009.8 hPa 1.0 m/s 0.3 mm 17.2° 1009.3 hPa 2.3 m/s 0.0 mm 17.7° 1010.1 hPa 1.9 m/s
23:00 16.0° 1010.9 hPa 1.2 m/s 0.0 mm 15.0° 1008.4 hPa 3.0 m/s 53.2 mm 17.0° 1011.1 hPa 1.1 m/s 0.0 mm 16.3° 1011.3 hPa 1.6 m/s 0.0 mm 14.6° 1011.4 hPa 1.5 m/s
 05:53     20:34    Daglengte: 14:41 Zaterdag 07 Aug
02:00 13.9° 1010.8 hPa 1.0 m/s 0.0 mm 11.8° 1009.0 hPa 2.5 m/s 53.2 mm 15.5° 1010.8 hPa 0.7 m/s 0.0 mm 14.0° 1011.7 hPa 2.1 m/s 0.0 mm 13.6° 1011.6 hPa 1.3 m/s
05:00 12.8° 1010.5 hPa 1.0 m/s 0.0 mm 11.7° 1008.7 hPa 2.9 m/s 53.2 mm 14.1° 1010.4 hPa 0.2 m/s 0.0 mm 12.8° 1011.6 hPa 1.6 m/s 0.0 mm 12.8° 1011.2 hPa 0.6 m/s
08:00 14.9° 1010.5 hPa 0.9 m/s 0.0 mm 16.3° 1008.8 hPa 1.0 m/s 53.2 mm 15.8° 1010.5 hPa 0.7 m/s 0.0 mm 14.7° 1011.3 hPa 0.8 m/s 0.0 mm 15.6° 1010.6 hPa 1.5 m/s
11:00 20.3° 1008.8 hPa 3.1 m/s 0.0 mm 21.5° 1007.4 hPa 2.9 m/s 53.2 mm 20.5° 1008.8 hPa 3.5 m/s 0.0 mm 20.9° 1008.6 hPa 4.0 m/s
14:00 23.8° 1006.3 hPa 4.2 m/s 0.0 mm 25.2° 1004.3 hPa 3.4 m/s 53.2 mm 23.8° 1006.4 hPa 4.8 m/s 0.0 mm 24.0° 1005.4 hPa 4.8 m/s
17:00 24.8° 1003.3 hPa 4.9 m/s 0.0 mm 27.1° 1001.5 hPa 4.8 m/s 53.2 mm 24.8° 1003.3 hPa 5.4 m/s 0.0 mm 25.3° 1002.6 hPa 4.5 m/s
20:00 20.9° 1001.6 hPa 3.7 m/s 12.2 mm 19.6° 1001.2 hPa 8.7 m/s 53.3 mm 22.4° 1001.3 hPa 2.7 m/s 0.0 mm 21.4° 1002.0 hPa 1.7 m/s
23:00 17.7° 1005.3 hPa 6.0 m/s 0.0 mm 15.3° 1008.3 hPa 6.5 m/s 53.9 mm 18.5° 1002.1 hPa 2.2 m/s 0.0 mm 18.5° 1007.6 hPa 6.8 m/s
 05:55     20:33    Daglengte: 14:38 Zondag 08 Aug
02:00 15.1° 1010.4 hPa 5.0 m/s 11.9 mm 14.7° 1009.9 hPa 3.2 m/s 61.1 mm 16.0° 1010.4 hPa 6.3 m/s 0.2 mm 15.7° 1012.1 hPa 3.8 m/s
05:00 14.6° 1011.8 hPa 2.9 m/s 22.4 mm 14.8° 1008.8 hPa 1.9 m/s 65.3 mm 14.6° 1012.5 hPa 3.1 m/s 1.0 mm 14.7° 1012.6 hPa 1.9 m/s
08:00 15.0° 1013.6 hPa 3.2 m/s 22.9 mm 17.0° 1010.2 hPa 4.2 m/s 65.3 mm 14.6° 1014.5 hPa 3.0 m/s 1.7 mm 14.7° 1014.2 hPa 1.6 m/s
11:00 18.0° 1014.9 hPa 3.2 m/s 5.9 mm 18.4° 1014.9 hPa 3.6 m/s 0.2 mm 15.7° 1015.1 hPa 0.7 m/s 28.5 mm
14:00 20.2° 1014.8 hPa 2.7 m/s 0.0 mm 20.7° 1014.8 hPa 3.0 m/s 0.0 mm 16.3° 1015.3 hPa 0.2 m/s 28.5 mm
17:00 15.5° 1017.0 hPa 2.8 m/s 28.8 mm 15.5° 1017.0 hPa 2.8 m/s 28.8 mm
20:00 11.5° 1021.2 hPa 3.5 m/s 32.6 mm 11.5° 1021.2 hPa 3.5 m/s 32.6 mm
23:00 11.8° 1022.4 hPa 2.3 m/s 34.6 mm 11.8° 1022.4 hPa 2.3 m/s 34.6 mm
 05:56     20:31    Daglengte: 14:35 Maandag 09 Aug
02:00 9.8° 1022.2 hPa 1.8 m/s 34.6 mm 9.8° 1022.2 hPa 1.8 m/s 34.6 mm
05:00 8.8° 1022.3 hPa 0.7 m/s 34.6 mm 8.8° 1022.3 hPa 0.7 m/s 34.6 mm
08:00 11.6° 1022.6 hPa 0.4 m/s 34.6 mm 11.6° 1022.6 hPa 0.4 m/s 34.6 mm
11:00 16.6° 1022.6 hPa 0.2 m/s 34.6 mm 16.6° 1022.6 hPa 0.2 m/s 34.6 mm
14:00 19.7° 1021.9 hPa 1.2 m/s 34.6 mm 19.7° 1021.9 hPa 1.2 m/s 34.6 mm
17:00 19.9° 1022.0 hPa 1.9 m/s 34.6 mm 19.9° 1022.0 hPa 1.9 m/s 34.6 mm
20:00 16.1° 1023.1 hPa 1.5 m/s 34.7 mm 16.1° 1023.1 hPa 1.5 m/s 34.7 mm
23:00 12.5° 1024.6 hPa 1.7 m/s 34.8 mm 12.5° 1024.6 hPa 1.7 m/s 34.8 mm
 05:57     20:30    Daglengte: 14:33 Dinsdag 10 Aug
02:00 11.4° 1025.3 hPa 1.7 m/s 34.8 mm 11.4° 1025.3 hPa 1.7 m/s 34.8 mm
05:00 11.4° 1025.0 hPa 1.3 m/s 34.8 mm 11.4° 1025.0 hPa 1.3 m/s 34.8 mm
08:00 13.7° 1025.4 hPa 0.9 m/s 34.8 mm 13.7° 1025.4 hPa 0.9 m/s 34.8 mm
11:00 19.5° 1024.5 hPa 1.7 m/s 34.8 mm 19.5° 1024.5 hPa 1.7 m/s 34.8 mm
14:00 22.5° 1022.9 hPa 2.1 m/s 34.8 mm 22.5° 1022.9 hPa 2.1 m/s 34.8 mm
17:00 22.6° 1021.9 hPa 2.0 m/s 34.8 mm 22.6° 1021.9 hPa 2.0 m/s 34.8 mm
20:00 17.5° 1022.2 hPa 1.1 m/s 34.8 mm 17.5° 1022.2 hPa 1.1 m/s 34.8 mm
23:00 14.5° 1023.5 hPa 0.9 m/s 34.8 mm 14.5° 1023.5 hPa 0.9 m/s 34.8 mm
 05:59     20:28    Daglengte: 14:29 Woensdag 11 Aug
02:00 13.1° 1023.6 hPa 0.9 m/s 34.8 mm 13.1° 1023.6 hPa 0.9 m/s 34.8 mm
05:00 12.3° 1022.9 hPa 0.5 m/s 34.8 mm 12.3° 1022.9 hPa 0.5 m/s 34.8 mm
08:00 15.2° 1023.1 hPa 0.8 m/s 34.8 mm 15.2° 1023.1 hPa 0.8 m/s 34.8 mm
11:00 20.6° 1022.5 hPa 2.1 m/s 34.8 mm 20.6° 1022.5 hPa 2.1 m/s 34.8 mm
14:00 23.7° 1021.4 hPa 1.8 m/s 34.8 mm 23.7° 1021.4 hPa 1.8 m/s 34.8 mm
17:00 24.5° 1021.1 hPa 1.0 m/s 34.8 mm 24.5° 1021.1 hPa 1.0 m/s 34.8 mm
20:00 19.3° 1021.7 hPa 0.7 m/s 34.8 mm 19.3° 1021.7 hPa 0.7 m/s 34.8 mm
23:00 15.8° 1023.3 hPa 0.7 m/s 34.8 mm 15.8° 1023.3 hPa 0.7 m/s 34.8 mm
 06:00     20:26    Daglengte: 14:26 Donderdag 12 Aug
02:00 15.1° 1024.0 hPa 0.9 m/s 34.8 mm 15.1° 1024.0 hPa 0.9 m/s 34.8 mm
05:00 14.1° 1023.9 hPa 0.9 m/s 34.8 mm 14.1° 1023.9 hPa 0.9 m/s 34.8 mm
08:00 17.0° 1024.3 hPa 0.3 m/s 34.8 mm 17.0° 1024.3 hPa 0.3 m/s 34.8 mm
11:00 22.5° 1023.9 hPa 1.2 m/s 34.8 mm 22.5° 1023.9 hPa 1.2 m/s 34.8 mm
14:00 25.5° 1022.8 hPa 1.6 m/s 34.8 mm 25.5° 1022.8 hPa 1.6 m/s 34.8 mm
20:00 20.6° 1022.6 hPa 1.1 m/s 34.8 mm 20.6° 1022.6 hPa 1.1 m/s 34.8 mm
 06:01     20:24    Daglengte: 14:23 Vrijdag 13 Aug
02:00 15.9° 1023.8 hPa 0.8 m/s 34.8 mm 15.9° 1023.8 hPa 0.8 m/s 34.8 mm
08:00 17.9° 1023.6 hPa 0.7 m/s 34.8 mm 17.9° 1023.6 hPa 0.7 m/s 34.8 mm
14:00 26.0° 1021.0 hPa 2.2 m/s 34.8 mm 26.0° 1021.0 hPa 2.2 m/s 34.8 mm
20:00 20.7° 1018.8 hPa 0.9 m/s 34.8 mm 20.7° 1018.8 hPa 0.9 m/s 34.8 mm
 06:03     20:23    Daglengte: 14:20 Zaterdag 14 Aug
02:00 15.8° 1018.3 hPa 0.7 m/s 34.8 mm 15.8° 1018.3 hPa 0.7 m/s 34.8 mm
08:00 17.7° 1017.0 hPa 0.6 m/s 34.8 mm 17.7° 1017.0 hPa 0.6 m/s 34.8 mm
14:00 26.8° 1013.3 hPa 1.1 m/s 34.8 mm 26.8° 1013.3 hPa 1.1 m/s 34.8 mm
20:00 21.4° 1011.5 hPa 1.1 m/s 36.4 mm 21.4° 1011.5 hPa 1.1 m/s 36.4 mm
 06:04     20:21    Daglengte: 14:17 Zondag 15 Aug
02:00 18.5° 1012.3 hPa 3.3 m/s 42.4 mm 18.5° 1012.3 hPa 3.3 m/s 42.4 mm
08:00 16.5° 1016.7 hPa 1.1 m/s 0.9 mm
14:00 22.1° 1015.0 hPa 1.5 m/s 1.5 mm
20:00 18.4° 1015.3 hPa 0.7 m/s 1.1 mm
 06:05     20:19    Daglengte: 14:14 Maandag 16 Aug
02:00 15.1° 1016.5 hPa 1.0 m/s 1.1 mm
08:00 15.7° 1016.4 hPa 0.9 m/s 0.5 mm
14:00 21.6° 1015.8 hPa 1.7 m/s 0.6 mm
20:00 18.0° 1016.8 hPa 1.0 m/s 0.8 mm
 06:07     20:17    Daglengte: 14:10 Dinsdag 17 Aug
02:00 14.8° 1018.5 hPa 0.9 m/s 1.1 mm
08:00 15.5° 1018.8 hPa 0.9 m/s 0.5 mm
14:00 21.9° 1017.9 hPa 1.3 m/s 0.7 mm
20:00 18.2° 1018.2 hPa 0.9 m/s 0.9 mm
 06:08     20:15    Daglengte: 14:07 Woensdag 18 Aug
02:00 14.9° 1019.3 hPa 1.0 m/s 1.3 mm
08:00 15.7° 1018.9 hPa 1.0 m/s 0.7 mm
14:00 22.4° 1017.2 hPa 1.2 m/s 1.1 mm
20:00 18.3° 1017.0 hPa 0.8 m/s 1.2 mm
 06:10     20:14    Daglengte: 14:04 Donderdag 19 Aug
02:00 15.3° 1018.1 hPa 1.3 m/s 1.4 mm
08:00 15.7° 1017.7 hPa 1.0 m/s 1.2 mm
14:00 21.7° 1016.1 hPa 1.2 m/s 0.0 mm
20:00 18.0° 1016.4 hPa 0.9 m/s 1.6 mm
 06:11     20:12    Daglengte: 14:01 Vrijdag 20 Aug
02:00 15.0° 1017.4 hPa 1.3 m/s 1.9 mm
08:00 15.7° 1017.0 hPa 1.2 m/s 0.9 mm
FMI Hirlam - 7.5 km EWN WRFDA - 12 km DWD ICON - 7 km GFS - 25 km Basiskaart






























































Updatetijd (Europe/Brussels) Resolutie Lengte Stap
FMI Hirlam 07:00, 13:00, 19:00, 01:00 7.5 km 49h 1h
EWN WRFDA 04:15, 10:15, 16:15, 22:15 12 km 73h 1h
DWD ICON 11:45, 17:45, 23:45, 05:45 7 km 75h 1h
GFS 08:30, 14:30, 20:30, 02:30 25 km 237h 3h
30+ mm
25-30 mm
20-25 mm
15-20 mm
10-15 mm
6-10 mm
4-6 mm
2-4 mm
1-2 mm
0.5-1 mm
0.2-0.5 mm
0.1-0.2 mm
30+ mm
25-30 mm
20-25 mm
15-20 mm
10-15 mm
6-10 mm
4-6 mm
2-4 mm
1-2 mm
0.5-1 mm
0.2-0.5 mm
0.1-0.2 mm
Sneeuwval
Natte sneeuw
Hagel
Vorst
30+ mm
25-30 mm
20-25 mm
15-20 mm
10-15 mm
6-10 mm
4-6 mm
2-4 mm
1-2 mm
0.5-1 mm
0.2-0.5 mm
0.1-0.2 mm
Sneeuwval
Natte sneeuw
Hagel
Vorst
Onweer
50 mm
40 mm
30 mm
26 mm
22 mm
18 mm
14 mm
10 mm
9 mm
8 mm
7 mm
6 mm
5 mm
4.5 mm
4 mm
3.5 mm
3 mm
2.5 mm
2 mm
1.5 mm